EN

Hourly Weather Acaponeta

Today, 14 May, Friday

Time Temperature Precipitation Wind Pressure Humidity
00:00 +25°C° 0 mm 0 mps 753 mmHg 73%
01:00 +25°C° 0 mm 0 mps 752 mmHg 71%
02:00 +25°C° 0 mm 0 mps 752 mmHg 70%
03:00 +25°C° 0 mm 0 mps 752 mmHg 70%
04:00 +24°C° 0 mm 0 mps 753 mmHg 71%
05:00 +24°C° 0 mm 0 mps 753 mmHg 70%
06:00 +29°C° 0 mm 1 mps 753 mmHg 63%
07:00 +31°C° 0 mm 1 mps 754 mmHg 55%
08:00 +33°C° 0 mm 1 mps 754 mmHg 47%
09:00 +36°C° 0 mm 2 mps 754 mmHg 43%
10:00 +37°C° 0 mm 3 mps 753 mmHg 40%
11:00 +39°C° 0 mm 3 mps 753 mmHg 36%
12:00 +40°C° 0 mm 4 mps 753 mmHg 35%
13:00 +40°C° 0 mm 4 mps 752 mmHg 34%
14:00 +41°C° 0 mm 5 mps 751 mmHg 33%
15:00 +38°C° 0 mm 4 mps 751 mmHg 35%
16:00 +37°C° 0 mm 4 mps 751 mmHg 37%
17:00 +36°C° 0 mm 3 mps 751 mmHg 39%
18:00 +32°C° 0 mm 2 mps 751 mmHg 47%
19:00 +30°C° 0 mm 1 mps 752 mmHg 55%
20:00 +28°C° 0 mm 1 mps 753 mmHg 63%
21:00 +27°C° 0 mm 1 mps 753 mmHg 64%
22:00 +27°C° 0 mm 1 mps 753 mmHg 65%
23:00 +27°C° 0 mm 1 mps 753 mmHg 67%

Tomorrow, 15 May, Saturday

Time Temperature Precipitation Wind Pressure Humidity
00:00 +26°C° 0 mm 1 mps 753 mmHg 67%
01:00 +26°C° 0 mm 1 mps 753 mmHg 67%
02:00 +26°C° 0 mm 1 mps 752 mmHg 68%
03:00 +26°C° 0 mm 1 mps 753 mmHg 68%
04:00 +26°C° 0 mm 1 mps 753 mmHg 68%
05:00 +26°C° 0 mm 1 mps 753 mmHg 68%
06:00 +28°C° 0 mm 1 mps 753 mmHg 60%
07:00 +31°C° 0 mm 1 mps 753 mmHg 52%
08:00 +33°C° 0 mm 1 mps 754 mmHg 44%
09:00 +36°C° 0 mm 2 mps 753 mmHg 39%
10:00 +38°C° 0 mm 2 mps 753 mmHg 35%
11:00 +39°C° 0 mm 3 mps 753 mmHg 31%
12:00 +40°C° 0 mm 4 mps 752 mmHg 31%
13:00 +40°C° 0 mm 5 mps 752 mmHg 30%
14:00 +40°C° 0 mm 5 mps 751 mmHg 30%
15:00 +39°C° 0 mm 5 mps 752 mmHg 33%
16:00 +37°C° 0 mm 4 mps 752 mmHg 36%
17:00 +35°C° 0 mm 3 mps 752 mmHg 39%
18:00 +32°C° 0 mm 2 mps 752 mmHg 49%
19:00 +29°C° 0 mm 1 mps 753 mmHg 59%
20:00 +25°C° 0 mm 0 mps 753 mmHg 69%
21:00 +27°C° 0 mm 1 mps 753 mmHg 71%
22:00 +26°C° 0 mm 1 mps 753 mmHg 72%
23:00 +26°C° 0 mm 1 mps 754 mmHg 73%

Day after tomorrow, 16 May, Sunday

Time Temperature Precipitation Wind Pressure Humidity
00:00 +26°C° 0 mm 1 mps 753 mmHg 72%
01:00 +26°C° 0 mm 1 mps 753 mmHg 72%
02:00 +25°C° 0 mm 1 mps 753 mmHg 71%
03:00 +25°C° 0 mm 1 mps 753 mmHg 70%
04:00 +25°C° 0 mm 1 mps 753 mmHg 69%
05:00 +25°C° 0 mm 1 mps 753 mmHg 68%
06:00 +27°C° 0 mm 1 mps 753 mmHg 61%
07:00 +30°C° 0 mm 1 mps 754 mmHg 54%
08:00 +30°C° 0 mm 0 mps 754 mmHg 47%
09:00 +34°C° 0 mm 1 mps 754 mmHg 42%
10:00 +36°C° 0 mm 2 mps 753 mmHg 36%
11:00 +38°C° 0 mm 3 mps 753 mmHg 31%
12:00 +40°C° 0 mm 4 mps 752 mmHg 30%
13:00 +40°C° 0 mm 4 mps 752 mmHg 29%
14:00 +40°C° 0 mm 5 mps 751 mmHg 28%
15:00 +39°C° 0 mm 5 mps 751 mmHg 32%
16:00 +36°C° 0 mm 4 mps 751 mmHg 37%
17:00 +35°C° 0 mm 4 mps 751 mmHg 41%
18:00 +33°C° 0 mm 3 mps 752 mmHg 50%
19:00 +29°C° 0 mm 2 mps 752 mmHg 60%
20:00 +27°C° 0 mm 1 mps 753 mmHg 70%
21:00 +26°C° 0 mm 1 mps 753 mmHg 71%
22:00 +26°C° 0 mm 1 mps 753 mmHg 72%
23:00 +26°C° 0 mm 1 mps 753 mmHg 73%

17 May, Monday

Time Temperature Precipitation Wind Pressure Humidity
00:00 +25°C° 0 mm 1 mps 752 mmHg 73%
01:00 +25°C° 0 mm 1 mps 752 mmHg 73%
02:00 +25°C° 0 mm 1 mps 752 mmHg 73%
03:00 +25°C° 0 mm 1 mps 752 mmHg 73%
04:00 +24°C° 0 mm 1 mps 752 mmHg 72%
05:00 +24°C° 0 mm 1 mps 752 mmHg 72%
06:00 +27°C° 0 mm 1 mps 752 mmHg 64%
07:00 +29°C° 0 mm 1 mps 753 mmHg 55%
08:00 +32°C° 0 mm 1 mps 753 mmHg 47%
09:00 +33°C° 0 mm 1 mps 753 mmHg 42%
10:00 +36°C° 0 mm 2 mps 753 mmHg 38%
11:00 +38°C° 0 mm 3 mps 752 mmHg 34%
12:00 +38°C° 0 mm 4 mps 752 mmHg 33%
13:00 +38°C° 0 mm 4 mps 752 mmHg 32%
14:00 +39°C° 0 mm 5 mps 751 mmHg 31%
15:00 +37°C° 0 mm 4 mps 751 mmHg 34%
16:00 +36°C° 0 mm 4 mps 751 mmHg 37%
17:00 +35°C° 0 mm 3 mps 751 mmHg 40%
18:00 +31°C° 0 mm 2 mps 752 mmHg 50%
19:00 +28°C° 0 mm 1 mps 752 mmHg 60%
20:00 +24°C° 0 mm 0 mps 752 mmHg 70%
21:00 +23°C° 0 mm 0 mps 753 mmHg 72%
22:00 +25°C° 0 mm 1 mps 753 mmHg 73%
23:00 +24°C° 0 mm 1 mps 753 mmHg 75%

18 May, Tuesday

Time Temperature Precipitation Wind Pressure Humidity
00:00 +24°C° 0 mm 1 mps 753 mmHg 75%
01:00 +24°C° 0 mm 1 mps 752 mmHg 75%
02:00 +24°C° 0 mm 1 mps 752 mmHg 75%
03:00 +23°C° 0 mm 1 mps 752 mmHg 75%
04:00 +23°C° 0 mm 1 mps 752 mmHg 75%
05:00 +23°C° 0 mm 1 mps 753 mmHg 74%
06:00 +25°C° 0 mm 1 mps 753 mmHg 66%
07:00 +28°C° 0 mm 1 mps 753 mmHg 57%
08:00 +30°C° 0 mm 1 mps 754 mmHg 49%
09:00 +32°C° 0 mm 1 mps 753 mmHg 43%
10:00 +35°C° 0 mm 2 mps 753 mmHg 36%
11:00 +37°C° 0 mm 3 mps 752 mmHg 30%
12:00 +37°C° 0 mm 4 mps 752 mmHg 30%
13:00 +37°C° 0 mm 4 mps 752 mmHg 30%
14:00 +37°C° 0 mm 5 mps 751 mmHg 30%
15:00 +36°C° 0 mm 4 mps 751 mmHg 33%
16:00 +35°C° 0 mm 4 mps 751 mmHg 36%
17:00 +34°C° 0 mm 3 mps 751 mmHg 39%
18:00 +30°C° 0 mm 2 mps 751 mmHg 50%
19:00 +28°C° 0 mm 1 mps 752 mmHg 61%
20:00 +23°C° 0 mm 0 mps 752 mmHg 72%
21:00 +25°C° 0 mm 1 mps 753 mmHg 73%
22:00 +24°C° 0 mm 1 mps 753 mmHg 73%
23:00 +24°C° 0 mm 1 mps 753 mmHg 74%

19 May, Wednesday

Time Temperature Precipitation Wind Pressure Humidity
00:00 +23°C° 0 mm 1 mps 752 mmHg 73%
01:00 +23°C° 0 mm 1 mps 752 mmHg 72%
02:00 +23°C° 0 mm 1 mps 752 mmHg 71%
03:00 +23°C° 0 mm 1 mps 752 mmHg 70%
04:00 +22°C° 0 mm 1 mps 752 mmHg 69%
05:00 +22°C° 0 mm 1 mps 752 mmHg 67%
06:00 +25°C° 0 mm 1 mps 752 mmHg 58%
07:00 +28°C° 0 mm 1 mps 752 mmHg 49%
08:00 +31°C° 0 mm 1 mps 752 mmHg 40%
09:00 +34°C° 0 mm 2 mps 752 mmHg 36%
10:00 +36°C° 0 mm 2 mps 752 mmHg 32%
11:00 +37°C° 0 mm 3 mps 751 mmHg 28%
12:00 +37°C° 0 mm 4 mps 751 mmHg 29%
13:00 +38°C° 0 mm 4 mps 751 mmHg 30%
14:00 +39°C° 0 mm 5 mps 750 mmHg 31%
15:00 +36°C° 0 mm 5 mps 750 mmHg 34%
16:00 +35°C° 0 mm 4 mps 750 mmHg 37%
17:00 +34°C° 0 mm 3 mps 751 mmHg 39%
18:00 +30°C° 0 mm 2 mps 751 mmHg 49%
19:00 +27°C° 0 mm 1 mps 751 mmHg 58%
20:00 +23°C° 0 mm 0 mps 752 mmHg 68%
21:00 +24°C° 0 mm 1 mps 752 mmHg 70%
22:00 +24°C° 0 mm 1 mps 752 mmHg 72%
23:00 +23°C° 0 mm 1 mps 752 mmHg 73%
Show more